Location: St. Louis
(38.6270°N, 90.1994°W)
Time: 19:06:11
(UTC-06:00)

Vanguard 3 - Pass Details

Date: 06 December 2021
Orbit: 508 x 3260 km, 33.3° (Epoch: 19 January)

Event Time Altitude Azimuth Distance (km) Brightness Sun altitude
Exits shadow 00:11:36 14° 97° (E) 5,838 11.4 -73.3°
Drops below altitude 10° 00:14:20 10° 91° (E) 6,190 11.6 -73.2°
Sets 00:20:35 0° 79° (E) 7,099 12.1 -72.8°
